Content
SEND FEEDBACK

Daily
Averages
Monthly
Summary
United States of America

INDEPENDENCE, IOWA


Home > North America > United States > Iowa
Elevation: 920 feet     Latitude: 42 28N     Longitude: 091 54W

WEATHER
 
SELECT A DAY
Number of Records: 201,806;   Date Range: 8/16/02 - 7/26/14
 
SHARE

PRINT THIS DATA

[ ← Previous Day ]
WEATHER ALMANAC - FEBRUARY 13, 2013
[ Next Day → ]
[ °C ]   °F
Weather ElementAverageHighLow
Temperature32.5 °F41 °F (4:15 pm)24.8 °F (7:15 am)
Dewpoint28.7 °F32 °F (1:55 pm)23 °F (6:55 am)
Humidity86.4 %93 % (12:35 am)70 % (4:15 pm)
Barometer29.74 in29.83 in (12:35 am)29.62 in (10:35 pm)
Wind Speed7.2 mph11.5 mph (2:15 pm)
Weather ElementAverage
Visibility9.2 mi
Wind DirectionWSW (247.6 °)

Weather ElementTotal
Precipitation---
Heating Degree Days32.1 (Base 65)
Averaged from 71 records on February 13, 2013
WEATHER CONDITIONS BREAKOUT
WIND DIRECTION BREAKOUT
WEATHER BY HOUR - FEBRUARY 13, 2013
[ °C ]   °F
Local TimeTemperatureDewpointHumidityBarometerVisibilityWind DirectionWind SpeedGust SpeedPrecipitationEventsConditions
12:35 AM28.4 °F26.6 °F93 %29.83 in10.0 miSSW (210°)5.8 mphClear
12:55 AM28.4 °F26.6 °F93 %29.82 in7.0 miSSW (200°)6.9 mphClear
1:15 AM28.4 °F24.8 °F86 %29.82 in10.0 miSSW (210°)5.8 mphClear
1:35 AM28.4 °F26.6 °F93 %29.82 in10.0 miSW (230°)5.8 mphClear
1:55 AM28.4 °F24.8 °F86 %29.82 in10.0 miWest (260°)3.5 mphClear
2:15 AM28.4 °F26.6 °F93 %29.81 in10.0 miWSW (240°)4.6 mphClear
2:35 AM28.4 °F26.6 °F93 %29.81 in10.0 miWSW (250°)5.8 mphClear
2:55 AM28.4 °F24.8 °F86 %29.80 in10.0 miWest (260°)5.8 mphClear
3:15 AM28.4 °F24.8 °F86 %29.80 in7.0 miWest (260°)5.8 mphClear
3:35 AM28.4 °F26.6 °F93 %29.79 in7.0 miWest (260°)4.6 mphClear
3:55 AM26.6 °F24.8 °F93 %29.79 in7.0 miWest (270°)4.6 mphClear
4:15 AM26.6 °F24.8 °F93 %29.78 in5.0 miWest (280°)5.8 mphClear
4:35 AM26.6 °F24.8 °F93 %29.78 in7.0 miWest (280°)4.6 mphClear
4:55 AM26.6 °F24.8 °F93 %29.78 in7.0 miWest (280°)4.6 mphClear
5:15 AM26.6 °F24.8 °F93 %29.78 in7.0 miWNW (290°)3.5 mphClear
5:35 AM26.6 °F24.8 °F93 %29.78 in7.0 miWNW (300°)6.9 mphClear
5:55 AM26.6 °F24.8 °F93 %29.78 in10.0 miWNW (300°)6.9 mphClear
6:15 AM26.6 °F24.8 °F93 %29.77 in10.0 miWNW (300°)5.8 mphClear
6:35 AM26.6 °F24.8 °F93 %29.77 in10.0 miWNW (290°)6.9 mphClear
6:55 AM26.6 °F23.0 °F86 %29.77 in7.0 miWNW (290°)4.6 mphClear
7:15 AM24.8 °F23.0 °F93 %29.77 in7.0 miWNW (290°)4.6 mphClear
7:35 AM26.6 °F23.0 °F86 %29.77 in7.0 miWNW (290°)5.8 mphClear
7:55 AM26.6 °F24.8 °F93 %29.77 in10.0 miWNW (300°)5.8 mphClear
8:15 AM28.4 °F26.6 °F93 %29.77 in7.0 miWNW (300°)9.2 mphClear
8:35 AM28.4 °F26.6 °F93 %29.77 in7.0 miWNW (300°)8.1 mphClear
8:55 AM30.2 °F26.6 °F86 %29.77 in10.0 miWNW (300°)9.2 mphClear
9:15 AM30.2 °F26.6 °F86 %29.77 in7.0 miWNW (300°)10.4 mphClear
9:35 AM30.2 °F26.6 °F86 %29.77 in10.0 miNW (310°)5.8 mphClear
9:55 AM32.0 °F26.6 °F80 %29.77 in10.0 miWNW (300°)9.2 mphClear
10:15 AM32.0 °F26.6 °F80 %29.76 in10.0 miWest (280°)8.1 mphClear
10:35 AM32.0 °F28.4 °F87 %29.77 in10.0 miWNW (290°)9.2 mphClear
10:55 AM32.0 °F28.4 °F87 %29.77 in10.0 miWNW (290°)9.2 mphClear
11:15 AM32.0 °F28.4 °F87 %29.77 in10.0 miWest (280°)6.9 mphClear
11:35 AM33.8 °F28.4 °F81 %29.77 in10.0 miWest (280°)10.4 mphClear
11:55 AM33.8 °F28.4 °F81 %29.77 in7.0 miWest (270°)8.1 mphClear
12:15 PM35.6 °F28.4 °F75 %29.76 in10.0 miWest (270°)9.2 mphClear
12:35 PM35.6 °F30.2 °F81 %29.75 in10.0 miWSW (250°)6.9 mphClear
12:55 PM37.4 °F30.2 °F75 %29.74 in10.0 miWSW (250°)6.9 mphClear
1:15 PM37.4 °F30.2 °F75 %29.73 in10.0 miWSW (240°)8.1 mphClear
1:35 PM37.4 °F30.2 °F75 %29.74 in10.0 miWest (270°)10.4 mphClear
1:55 PM39.2 °F32.0 °F75 %29.74 in10.0 miWest (260°)10.4 mphClear
2:15 PM39.2 °F32.0 °F75 %29.73 in10.0 miWest (270°)11.5 mphClear
2:35 PM37.4 °F32.0 °F81 %29.73 in10.0 miWest (260°)10.4 mphMostly Cloudy
2:55 PM37.4 °F32.0 °F81 %29.73 in10.0 miWest (260°)8.1 mphOvercast
3:15 PM37.4 °F32.0 °F81 %29.73 in10.0 miWest (260°)8.1 mphOvercast
3:35 PM37.4 °F32.0 °F81 %29.72 in10.0 miWSW (250°)4.6 mphOvercast
3:55 PM39.2 °F32.0 °F75 %29.71 in10.0 miWSW (240°)4.6 mphOvercast
4:15 PM41.0 °F32.0 °F70 %29.71 in10.0 miWSW (250°)8.1 mphScattered Clouds
4:35 PM41.0 °F32.0 °F70 %29.71 in10.0 miWSW (240°)5.8 mphScattered Clouds
4:55 PM39.2 °F32.0 °F75 %29.71 in10.0 miSW (230°)3.5 mphClear
5:15 PM37.4 °F32.0 °F81 %29.70 in10.0 miSW (220°)5.8 mphClear
5:35 PM33.8 °F32.0 °F93 %29.70 in7.0 miSW (220°)5.8 mphClear
5:55 PM33.8 °F32.0 °F93 %29.70 in10.0 miSW (220°)6.9 mphClear
6:15 PM33.8 °F32.0 °F93 %29.70 in10.0 miSSW (210°)5.8 mphMostly Cloudy
6:35 PM33.8 °F32.0 °F93 %29.70 in10.0 miSSW (200°)6.9 mphOvercast
6:55 PM33.8 °F32.0 °F93 %29.70 in10.0 miSouth (190°)8.1 mphOvercast
7:15 PM35.6 °F32.0 °F87 %29.69 in10.0 miSouth (180°)8.1 mphMostly Cloudy
7:35 PM33.8 °F32.0 °F93 %29.68 in10.0 miSouth (180°)9.2 mphOvercast
7:55 PM33.8 °F32.0 °F93 %29.67 in10.0 miSouth (180°)10.4 mphOvercast
8:15 PM35.6 °F32.0 °F87 %29.67 in10.0 miSouth (180°)9.2 mphOvercast
8:35 PM35.6 °F32.0 °F87 %29.66 in10.0 miSouth (180°)9.2 mphOvercast
8:55 PM35.6 °F32.0 °F87 %29.65 in10.0 miSouth (180°)9.2 mphOvercast
9:15 PM35.6 °F32.0 °F87 %29.65 in10.0 miSouth (180°)10.4 mphOvercast
9:35 PM35.6 °F32.0 °F87 %29.64 in10.0 miSouth (180°)9.2 mphOvercast
9:55 PM35.6 °F32.0 °F87 %29.64 in10.0 miSSW (200°)9.2 mphOvercast
10:15 PM35.6 °F32.0 °F87 %29.63 in10.0 miSouth (190°)6.9 mphOvercast
10:35 PM33.8 °F32.0 °F93 %29.62 in10.0 miSouth (190°)5.8 mphOvercast
10:55 PM33.8 °F32.0 °F93 %29.62 in10.0 miSSW (200°)6.9 mphOvercast
11:15 PM35.6 °F30.2 °F81 %29.62 in4.0 miSSW (200°)5.8 mphHaze
11:35 PM33.8 °F30.2 °F87 %29.62 in10.0 miSW (220°)9.2 mphScattered Clouds
11:55 PM35.6 °F30.2 °F81 %29.62 in10.0 miWSW (240°)10.4 mphScattered Clouds
Hourly data recorded from KIIB, located miles away from Independence, Iowa







STORIES FROM OUR PARTNERS